Regional Weather Roundup
Issued by NWS Jackson, KY

Home | Current Version | Previous Version | Text Only | Print | Product List | Glossary Off
Versions: 1 2 3 4 5 6 7 8 9 10 11 12 13 14 15 16 17 18 19 20 21 22 23 24 25 26 27 28 29 30 31 32 33 34 35 36 37 38 39 40 41 42 43 44 45 46 47 48 49 50

000
ASUS43 KJKL 222210
RWRJKL

EAST KENTUCKY HOURLY WEATHER ROUNDUP
NATIONAL WEATHER SERVICE JACKSON KY
600 PM EDT SUN OCT 22 2017

NOTE: "FAIR" INDICATES FEW OR NO CLOUDS BELOW 12,000 FEET WITH
NO SIGNIFICANT WEATHER AND/OR OBSTRUCTIONS TO VISIBILITY.

* THESE REPORTS ARE NOT UNDER NWS QUALITY CONTROL AND MAY NOT
  REPORT WEATHER SUCH AS PRECIPITATION AND FOG.

KYZ079-080-083-085-087-088-110-112-115-119-120-222300
...EASTERN KENTUCKY...

CITY           SKY/WX    TMP DP  RH WIND       PRES   REMARKS
JACKSON        PTCLDY    73  49  42 CALM      30.17S
LONDON         PTCLDY    73  52  47 S5        30.15F
SOMERSET*      CLOUDY    72  54  53 SE5       30.13F
MONTICELLO*    CLOUDY    73  59  61 VRB6      30.13F
WILLIAMSBURG*  CLOUDY    72  55  56 SE5       30.15S
MIDDLESBORO*   CLEAR     72  55  54 CALM      30.17S
HARLAN APT*    MOCLDY    73  48  40 CALM      30.18S
PIKE CO APT*     N/A     73  48  41 CALM      30.18S
BIG SANDY APT* CLOUDY    70  54  56 CALM      30.17S
MOREHEAD APT*  CLOUDY    72  48  43 CALM      30.16F
$$

KYZ035-036-041-042-044-050-067-078-099-222300
...CENTRAL KENTUCKY...

CITY           SKY/WX    TMP DP  RH WIND       PRES   REMARKS
MT STERLING*   CLOUDY    72  52  49 S3        30.15F
FLEMING/MASON* PTCLDY    69  52  54 CALM      30.15S
DANVILLE*      CLOUDY    72  55  56 SE5       30.12F
LEXINGTON      PTCLDY    73  54  51 SE7       30.12F
FRANKFORT      PTCLDY    74  54  49 SE8       30.09F
LOUISVILLE     CLOUDY    75  58  55 SE9       30.04F
LEBANON*         N/A     75  57  53 SE5       30.09F
GLASGOW*       PTSUNNY   75  57  54 SE7       30.05F
BOWLING GREEN  LGT RAIN  77  60  55 S9        30.03F
$$

KYZ091>093-OHZ055-061-077-WVZ005-015-034-035-042-222300
...SOUTHERN OHIO/WEST VIRGINIA...

CITY           SKY/WX    TMP DP  RH WIND       PRES   REMARKS
COVINGTON      MOCLDY    69  54  58 S9        30.10F
COLUMBUS       CLOUDY    74  50  42 S7        30.13S
DAYTON         MOCLDY    71  50  47 S16       30.11S
WILMINGTON     MOCLDY    70  50  49 S6        30.13S
HUNTINGTON     CLOUDY    72  50  45 S3        30.15F
CHARLESTON     CLOUDY    74  49  41 E5        30.17R
PINEVILLE*     CLOUDY    73  46  38 MISG      30.26R
BECKLEY        CLOUDY    68  41  37 SE8       30.26R
BLUEFIELD      CLOUDY    64  42  44 S9G18     30.29R
LOGAN CO APT*    N/A     77  50  38 CALM      30.18S
$$

VAZ002-007-008-TNZ017-027-036-066-071-222300
...SOUTHWEST VIRGINIA/EAST TENNESSEE...

CITY           SKY/WX    TMP DP  RH WIND       PRES   REMARKS
WISE*          MOCLDY    70  50  49 CALM      30.24S
JONESVILLE*      N/A     73  52  46 CALM      30.20S
ABINGDON*      PTCLDY    73  51  46 S9        30.24S
BRISTOL        CLOUDY    73  54  51 SE8       30.21R
MORRISTOWN*    CLEAR     75  52  43 SW5       30.17S
SEVIERVILLE*   CLEAR     75  54  46 CALM      30.15S
KNOXVILLE      CLOUDY    76  57  51 SE8       30.14S
LAFOLLETTE*    MOCLDY    73  55  53 CALM      30.18F HAZE
OAK RIDGE      PTCLDY    76  58  53 VRB3      30.15F
CROSSVILLE     PTCLDY    70  56  61 S8        30.15F
NASHVILLE      CLOUDY    77  60  55 SE10      30.04F
$$

...KEY TO REMARKS...
VSB - VISIBILITY IN MILES
WCI - WIND CHILL INDEX
HX  - HEAT INDEX

$$



USA.gov is the U.S. government's official web portal to all federal, state and local government web resources and services.